owner,sensor,date,latitude,longitude,vertical_datum,wind_speed,wind_to_direction,wind_speed_of_gust,qcFlag 
TCOON,ioos:station:TCOON:031:1,2010-06-01T00:00:00Z,28.4073,-96.7122,0.0,5.7,107.0,7.3,'11111222,11111222,11111222' 
TCOON,ioos:station:TCOON:031:1,2010-06-01T01:00:00Z,28.4073,-96.7122,0.0,4.6,109.0,5.9,'11111222,11111222,11111222' 
TCOON,ioos:station:TCOON:031:1,2010-06-01T03:00:00Z,28.4073,-96.7122,0.0,6.0,122.0,7.2,'11111222,11111222,11111222' 
TCOON,ioos:station:TCOON:031:1,2010-06-01T04:00:00Z,28.4073,-96.7122,0.0,4.4,115.0,5.1,'11111222,11111222,11111222' 
TCOON,ioos:station:TCOON:031:1,2010-06-01T05:00:00Z,28.4073,-96.7122,0.0,3.6,116.0,4.6,'11111222,11111222,11111222' 
TCOON,ioos:station:TCOON:031:1,2010-06-01T06:00:00Z,28.4073,-96.7122,0.0,4.3,126.0,6.4,'11111222,11111222,11111222' 
TCOON,ioos:station:TCOON:031:1,2010-06-01T07:00:00Z,28.4073,-96.7122,0.0,3.1,113.0,4.2,'11111222,11111222,11111222' 
TCOON,ioos:station:TCOON:031:1,2010-06-01T08:00:00Z,28.4073,-96.7122,0.0,2.6,109.0,3.5,'11111222,11111222,11111222' 
TCOON,ioos:station:TCOON:031:1,2010-06-01T09:00:00Z,28.4073,-96.7122,0.0,1.6,92.0,2.1,'11111222,11111222,11111222' 
TCOON,ioos:station:TCOON:031:1,2010-06-01T10:00:00Z,28.4073,-96.7122,0.0,1.0,87.0,1.5,'11111222,11111222,11111222' 
TCOON,ioos:station:TCOON:031:1,2010-06-01T11:00:00Z,28.4073,-96.7122,0.0,1.9,71.0,2.4,'11111222,11111222,11111222' 
TCOON,ioos:station:TCOON:031:1,2010-06-01T12:00:00Z,28.4073,-96.7122,0.0,1.9,83.0,2.4,'11111222,11111222,11111222' 
TCOON,ioos:station:TCOON:031:1,2010-06-01T13:00:00Z,28.4073,-96.7122,0.0,1.3,106.0,1.7,'11111222,11111222,11111222' 
TCOON,ioos:station:TCOON:031:1,2010-06-01T14:00:00Z,28.4073,-96.7122,0.0,2.6,156.0,4.0,'11111222,11111222,11111222' 
TCOON,ioos:station:TCOON:031:1,2010-06-01T15:00:00Z,28.4073,-96.7122,0.0,3.2,143.0,3.4,'11111222,11111222,11111222' 
TCOON,ioos:station:TCOON:031:1,2010-06-01T16:00:00Z,28.4073,-96.7122,0.0,3.8,149.0,4.6,'11111222,11111222,11111222' 
TCOON,ioos:station:TCOON:031:1,2010-06-01T17:00:00Z,28.4073,-96.7122,0.0,4.6,162.0,5.5,'11111222,11111222,11111222' 
TCOON,ioos:station:TCOON:031:1,2010-06-01T18:00:00Z,28.4073,-96.7122,0.0,4.2,162.0,5.0,'11111222,11111222,11111222' 
TCOON,ioos:station:TCOON:031:1,2010-06-01T19:00:00Z,28.4073,-96.7122,0.0,4.4,123.0,8.3,'11111222,11111222,11111222' 
TCOON,ioos:station:TCOON:031:1,2010-06-01T20:00:00Z,28.4073,-96.7122,0.0,5.5,95.0,7.9,'11111222,11111222,11111222' 
TCOON,ioos:station:TCOON:031:1,2010-06-01T21:00:00Z,28.4073,-96.7122,0.0,6.3,99.0,7.7,'11111222,11111222,11111222' 
TCOON,ioos:station:TCOON:031:1,2010-06-01T22:00:00Z,28.4073,-96.7122,0.0,5.4,109.0,6.7,'11111222,11111222,11111222' 
TCOON,ioos:station:TCOON:031:1,2010-06-01T23:00:00Z,28.4073,-96.7122,0.0,4.4,95.0,6.7,'11111222,11111222,11111222' 
TCOON,ioos:station:TCOON:031:1,2010-06-02T00:00:00Z,28.4073,-96.7122,0.0,5.1,101.0,7.3,'11111222,11111222,11111222' 
TCOON,ioos:station:TCOON:031:1,2010-06-02T01:00:00Z,28.4073,-96.7122,0.0,4.4,108.0,5.9,'11111222,11111222,11111222' 
TCOON,ioos:station:TCOON:031:1,2010-06-02T02:00:00Z,28.4073,-96.7122,0.0,4.5,113.0,5.5,'11111222,11111222,11111222' 
TCOON,ioos:station:TCOON:031:1,2010-06-02T04:00:00Z,28.4073,-96.7122,0.0,5.9,122.0,7.2,'11111222,11111222,11111222' 
TCOON,ioos:station:TCOON:031:1,2010-06-02T05:00:00Z,28.4073,-96.7122,0.0,6.5,121.0,7.6,'11111222,11111222,11111222' 
TCOON,ioos:station:TCOON:031:1,2010-06-02T06:00:00Z,28.4073,-96.7122,0.0,5.0,117.0,7.1,'11111222,11111222,11111222' 
TCOON,ioos:station:TCOON:031:1,2010-06-02T07:00:00Z,28.4073,-96.7122,0.0,4.4,120.0,6.4,'11111222,11111222,11111222' 
TCOON,ioos:station:TCOON:031:1,2010-06-02T08:00:00Z,28.4073,-96.7122,0.0,5.4,123.0,6.5,'11111222,11111222,11111222' 
TCOON,ioos:station:TCOON:031:1,2010-06-02T09:00:00Z,28.4073,-96.7122,0.0,5.1,141.0,5.9,'11111222,11111222,11111222' 
TCOON,ioos:station:TCOON:031:1,2010-06-02T10:00:00Z,28.4073,-96.7122,0.0,4.0,143.0,4.9,'11111222,11111222,11111222' 
TCOON,ioos:station:TCOON:031:1,2010-06-02T11:00:00Z,28.4073,-96.7122,0.0,2.7,93.0,2.9,'11111222,11111222,11111222' 
TCOON,ioos:station:TCOON:031:1,2010-06-02T12:00:00Z,28.4073,-96.7122,0.0,1.9,90.0,2.8,'11111222,11111222,11111222' 
TCOON,ioos:station:TCOON:031:1,2010-06-02T13:00:00Z,28.4073,-96.7122,0.0,2.8,122.0,3.7,'11111222,11111222,11111222' 
TCOON,ioos:station:TCOON:031:1,2010-06-02T14:00:00Z,28.4073,-96.7122,0.0,3.6,206.0,10.7,'11111222,11111222,11111222' 
TCOON,ioos:station:TCOON:031:1,2010-06-02T15:00:00Z,28.4073,-96.7122,0.0,5.4,143.0,6.3,'11111222,11111222,11111222' 
TCOON,ioos:station:TCOON:031:1,2010-06-02T16:00:00Z,28.4073,-96.7122,0.0,6.1,128.0,7.0,'11111222,11111222,11111222' 
TCOON,ioos:station:TCOON:031:1,2010-06-02T17:00:00Z,28.4073,-96.7122,0.0,6.9,135.0,7.6,'11111222,11111222,11111222' 
TCOON,ioos:station:TCOON:031:1,2010-06-02T18:00:00Z,28.4073,-96.7122,0.0,6.8,133.0,7.6,'11111222,11111222,11111222' 
TCOON,ioos:station:TCOON:031:1,2010-06-02T19:00:00Z,28.4073,-96.7122,0.0,6.5,145.0,7.8,'11111222,11111222,11111222' 
TCOON,ioos:station:TCOON:031:1,2010-06-02T20:00:00Z,28.4073,-96.7122,0.0,6.8,122.0,8.1,'11111222,11111222,11111222' 
TCOON,ioos:station:TCOON:031:1,2010-06-02T21:00:00Z,28.4073,-96.7122,0.0,6.6,135.0,7.9,'11111222,11111222,11111222' 
TCOON,ioos:station:TCOON:031:1,2010-06-02T22:00:00Z,28.4073,-96.7122,0.0,8.1,127.0,9.3,'11111222,11111222,11111222' 
TCOON,ioos:station:TCOON:031:1,2010-06-02T23:00:00Z,28.4073,-96.7122,0.0,8.0,126.0,9.8,'11111222,11111222,11111222' 
TCOON,ioos:station:TCOON:031:1,2010-06-03T00:00:00Z,28.4073,-96.7122,0.0,6.8,112.0,8.5,'11111222,11111222,11111222' 
TCOON,ioos:station:TCOON:031:1,2010-06-03T01:00:00Z,28.4073,-96.7122,0.0,6.3,107.0,8.6,'11111222,11111222,11111222' 
TCOON,ioos:station:TCOON:031:1,2010-06-03T02:00:00Z,28.4073,-96.7122,0.0,8.1,102.0,10.1,'11111222,11111222,11111222' 
TCOON,ioos:station:TCOON:031:1,2010-06-03T03:00:00Z,28.4073,-96.7122,0.0,8.8,132.0,11.1,'11111222,11111222,11111222' 
TCOON,ioos:station:TCOON:031:1,2010-06-03T04:00:00Z,28.4073,-96.7122,0.0,9.7,144.0,10.9,'11111222,11111222,11111222' 
TCOON,ioos:station:TCOON:031:1,2010-06-03T05:00:00Z,28.4073,-96.7122,0.0,6.4,359.0,13.8,'11111222,11111222,11111222' 
TCOON,ioos:station:TCOON:031:1,2010-06-03T06:00:00Z,28.4073,-96.7122,0.0,6.0,261.0,9.1,'11111222,11111222,11111222' 
TCOON,ioos:station:TCOON:031:1,2010-06-03T07:00:00Z,28.4073,-96.7122,0.0,1.5,19.0,1.8,'11111222,11111222,11111222' 
TCOON,ioos:station:TCOON:031:1,2010-06-03T08:00:00Z,28.4073,-96.7122,0.0,4.2,87.0,4.6,'11111222,11111222,11111222' 
TCOON,ioos:station:TCOON:031:1,2010-06-03T09:00:00Z,28.4073,-96.7122,0.0,6.3,290.0,9.1,'11111222,11111222,11111222' 
TCOON,ioos:station:TCOON:031:1,2010-06-03T10:00:00Z,28.4073,-96.7122,0.0,3.7,291.0,4.4,'11111222,11111222,11111222' 
TCOON,ioos:station:TCOON:031:1,2010-06-03T11:00:00Z,28.4073,-96.7122,0.0,2.5,340.0,3.8,'11111222,11111222,11111222' 
TCOON,ioos:station:TCOON:031:1,2010-06-03T12:00:00Z,28.4073,-96.7122,0.0,2.5,337.0,3.6,'11111222,11111222,11111222' 
TCOON,ioos:station:TCOON:031:1,2010-06-03T13:00:00Z,28.4073,-96.7122,0.0,1.0,2.0,3.1,'11111222,11111222,11111222' 
TCOON,ioos:station:TCOON:031:1,2010-06-03T14:00:00Z,28.4073,-96.7122,0.0,2.0,254.0,3.2,'11111222,11111222,11111222' 
TCOON,ioos:station:TCOON:031:1,2010-06-03T15:00:00Z,28.4073,-96.7122,0.0,3.6,240.0,4.6,'11111222,11111222,11111222' 
TCOON,ioos:station:TCOON:031:1,2010-06-03T16:00:00Z,28.4073,-96.7122,0.0,4.3,244.0,5.2,'11111222,11111222,11111222' 
TCOON,ioos:station:TCOON:031:1,2010-06-03T17:00:00Z,28.4073,-96.7122,0.0,4.3,247.0,6.1,'11111222,11111222,11111222' 
TCOON,ioos:station:TCOON:031:1,2010-06-03T18:00:00Z,28.4073,-96.7122,0.0,4.6,245.0,5.4,'11111222,11111222,11111222' 
TCOON,ioos:station:TCOON:031:1,2010-06-03T19:00:00Z,28.4073,-96.7122,0.0,5.4,249.0,7.1,'11111222,11111222,11111222' 
TCOON,ioos:station:TCOON:031:1,2010-06-03T20:00:00Z,28.4073,-96.7122,0.0,7.2,276.0,7.9,'11111222,11111222,11111222' 
TCOON,ioos:station:TCOON:031:1,2010-06-03T21:00:00Z,28.4073,-96.7122,0.0,5.8,287.0,8.2,'11111222,11111222,11111222' 
TCOON,ioos:station:TCOON:031:1,2010-06-03T22:00:00Z,28.4073,-96.7122,0.0,4.1,318.0,5.9,'11111222,11111222,11111222' 
TCOON,ioos:station:TCOON:031:1,2010-06-03T23:00:00Z,28.4073,-96.7122,0.0,3.9,329.0,7.5,'11111222,11111222,11111222' 
TCOON,ioos:station:TCOON:031:1,2010-06-04T00:00:00Z,28.4073,-96.7122,0.0,1.2,319.0,4.0,'11111222,11111222,11111222' 
TCOON,ioos:station:TCOON:031:1,2010-06-04T01:00:00Z,28.4073,-96.7122,0.0,1.8,295.0,5.5,'11111222,11111222,11111222' 
TCOON,ioos:station:TCOON:031:1,2010-06-04T02:00:00Z,28.4073,-96.7122,0.0,1.4,317.0,1.8,'11111222,11111222,11111222' 
TCOON,ioos:station:TCOON:031:1,2010-06-04T03:00:00Z,28.4073,-96.7122,0.0,2.9,287.0,3.9,'11111222,11111222,11111222' 
TCOON,ioos:station:TCOON:031:1,2010-06-04T04:00:00Z,28.4073,-96.7122,0.0,4.6,255.0,5.4,'11111222,11111222,11111222' 
TCOON,ioos:station:TCOON:031:1,2010-06-04T05:00:00Z,28.4073,-96.7122,0.0,4.1,280.0,5.6,'11111222,11111222,11111222' 
TCOON,ioos:station:TCOON:031:1,2010-06-04T06:00:00Z,28.4073,-96.7122,0.0,3.2,290.0,4.3,'11111222,11111222,11111222' 
TCOON,ioos:station:TCOON:031:1,2010-06-04T07:00:00Z,28.4073,-96.7122,0.0,3.5,240.0,3.5,'11111222,11111222,11111222' 
TCOON,ioos:station:TCOON:031:1,2010-06-04T08:00:00Z,28.4073,-96.7122,0.0,1.6,299.0,2.6,'11111222,11111222,11111222' 
TCOON,ioos:station:TCOON:031:1,2010-06-04T09:00:00Z,28.4073,-96.7122,0.0,1.0,335.0,1.6,'11111222,11111222,11111222' 
TCOON,ioos:station:TCOON:031:1,2010-06-04T10:00:00Z,28.4073,-96.7122,0.0,0.6,337.0,1.7,'11111222,11111222,11111222' 
TCOON,ioos:station:TCOON:031:1,2010-06-04T11:00:00Z,28.4073,-96.7122,0.0,0.8,4.0,1.4,'11111222,11111222,11111222' 
TCOON,ioos:station:TCOON:031:1,2010-06-04T12:00:00Z,28.4073,-96.7122,0.0,1.7,299.0,2.1,'11111222,11111222,11111222' 
TCOON,ioos:station:TCOON:031:1,2010-06-04T13:00:00Z,28.4073,-96.7122,0.0,1.6,290.0,2.1,'11111222,11111222,11111222' 
TCOON,ioos:station:TCOON:031:1,2010-06-04T14:00:00Z,28.4073,-96.7122,0.0,1.9,316.0,2.4,'11111222,11111222,11111222' 
TCOON,ioos:station:TCOON:031:1,2010-06-04T15:00:00Z,28.4073,-96.7122,0.0,2.6,259.0,3.3,'11111222,11111222,11111222' 
TCOON,ioos:station:TCOON:031:1,2010-06-04T16:00:00Z,28.4073,-96.7122,0.0,2.5,259.0,4.1,'11111222,11111222,11111222' 
TCOON,ioos:station:TCOON:031:1,2010-06-04T17:00:00Z,28.4073,-96.7122,0.0,3.2,247.0,4.1,'11111222,11111222,11111222' 
TCOON,ioos:station:TCOON:031:1,2010-06-04T18:00:00Z,28.4073,-96.7122,0.0,2.9,246.0,3.6,'11111222,11111222,11111222' 
TCOON,ioos:station:TCOON:031:1,2010-06-04T20:00:00Z,28.4073,-96.7122,0.0,2.2,214.0,2.4,'11111222,11111222,11111222' 
TCOON,ioos:station:TCOON:031:1,2010-06-04T21:00:00Z,28.4073,-96.7122,0.0,2.6,154.0,3.1,'11111222,11111222,11111222' 
TCOON,ioos:station:TCOON:031:1,2010-06-04T22:00:00Z,28.4073,-96.7122,0.0,1.0,115.0,1.6,'11111222,11111222,11111222' 
TCOON,ioos:station:TCOON:031:1,2010-06-04T23:00:00Z,28.4073,-96.7122,0.0,4.7,135.0,5.6,'11111222,11111222,11111222' 
TCOON,ioos:station:TCOON:031:1,2010-06-05T00:00:00Z,28.4073,-96.7122,0.0,3.6,115.0,4.5,'11111222,11111222,11111222' 
TCOON,ioos:station:TCOON:031:1,2010-06-05T01:00:00Z,28.4073,-96.7122,0.0,3.3,98.0,4.0,'11111222,11111222,11111222' 
TCOON,ioos:station:TCOON:031:1,2010-06-05T02:00:00Z,28.4073,-96.7122,0.0,2.5,99.0,3.0,'11111222,11111222,11111222' 
TCOON,ioos:station:TCOON:031:1,2010-06-05T03:00:00Z,28.4073,-96.7122,0.0,3.2,107.0,3.9,'11111222,11111222,11111222' 
TCOON,ioos:station:TCOON:031:1,2010-06-05T04:00:00Z,28.4073,-96.7122,0.0,3.7,106.0,4.5,'11111222,11111222,11111222' 
TCOON,ioos:station:TCOON:031:1,2010-06-05T05:00:00Z,28.4073,-96.7122,0.0,4.4,112.0,4.8,'11111222,11111222,11111222' 
TCOON,ioos:station:TCOON:031:1,2010-06-05T06:00:00Z,28.4073,-96.7122,0.0,6.0,126.0,7.0,'11111222,11111222,11111222' 
TCOON,ioos:station:TCOON:031:1,2010-06-05T07:00:00Z,28.4073,-96.7122,0.0,5.8,132.0,6.9,'11111222,11111222,11111222' 
TCOON,ioos:station:TCOON:031:1,2010-06-05T08:00:00Z,28.4073,-96.7122,0.0,6.4,136.0,7.5,'11111222,11111222,11111222' 
TCOON,ioos:station:TCOON:031:1,2010-06-05T09:00:00Z,28.4073,-96.7122,0.0,7.2,144.0,7.9,'11111222,11111222,11111222' 
TCOON,ioos:station:TCOON:031:1,2010-06-05T10:00:00Z,28.4073,-96.7122,0.0,6.4,156.0,7.3,'11111222,11111222,11111222' 
TCOON,ioos:station:TCOON:031:1,2010-06-05T11:00:00Z,28.4073,-96.7122,0.0,5.5,157.0,6.6,'11111222,11111222,11111222' 
TCOON,ioos:station:TCOON:031:1,2010-06-05T12:00:00Z,28.4073,-96.7122,0.0,4.9,150.0,5.8,'11111222,11111222,11111222' 
TCOON,ioos:station:TCOON:031:1,2010-06-05T13:00:00Z,28.4073,-96.7122,0.0,4.7,153.0,5.7,'11111222,11111222,11111222' 
TCOON,ioos:station:TCOON:031:1,2010-06-05T14:00:00Z,28.4073,-96.7122,0.0,5.8,149.0,6.3,'11111222,11111222,11111222' 
TCOON,ioos:station:TCOON:031:1,2010-06-05T15:00:00Z,28.4073,-96.7122,0.0,5.2,146.0,6.4,'11111222,11111222,11111222' 
TCOON,ioos:station:TCOON:031:1,2010-06-05T16:00:00Z,28.4073,-96.7122,0.0,4.6,142.0,5.3,'11111222,11111222,11111222' 
TCOON,ioos:station:TCOON:031:1,2010-06-05T17:00:00Z,28.4073,-96.7122,0.0,3.8,149.0,4.8,'11111222,11111222,11111222' 
TCOON,ioos:station:TCOON:031:1,2010-06-05T18:00:00Z,28.4073,-96.7122,0.0,4.4,157.0,5.3,'11111222,11111222,11111222' 
TCOON,ioos:station:TCOON:031:1,2010-06-05T19:00:00Z,28.4073,-96.7122,0.0,5.1,107.0,7.0,'11111222,11111222,11111222' 
TCOON,ioos:station:TCOON:031:1,2010-06-05T20:00:00Z,28.4073,-96.7122,0.0,5.6,100.0,6.4,'11111222,11111222,11111222' 
TCOON,ioos:station:TCOON:031:1,2010-06-05T21:00:00Z,28.4073,-96.7122,0.0,4.7,116.0,6.9,'11111222,11111222,11111222' 
TCOON,ioos:station:TCOON:031:1,2010-06-05T22:00:00Z,28.4073,-96.7122,0.0,7.5,110.0,9.2,'11111222,11111222,11111222' 
TCOON,ioos:station:TCOON:031:1,2010-06-05T23:00:00Z,28.4073,-96.7122,0.0,5.8,108.0,7.8,'11111222,11111222,11111222' 
TCOON,ioos:station:TCOON:031:1,2010-06-06T00:00:00Z,28.4073,-96.7122,0.0,5.2,112.0,6.4,'11111222,11111222,11111222' 
TCOON,ioos:station:TCOON:031:1,2010-06-06T01:00:00Z,28.4073,-96.7122,0.0,4.7,115.0,6.1,'11111222,11111222,11111222' 
TCOON,ioos:station:TCOON:031:1,2010-06-06T02:00:00Z,28.4073,-96.7122,0.0,5.7,110.0,6.7,'11111222,11111222,11111222' 
TCOON,ioos:station:TCOON:031:1,2010-06-06T03:00:00Z,28.4073,-96.7122,0.0,5.3,107.0,6.2,'11111222,11111222,11111222' 
TCOON,ioos:station:TCOON:031:1,2010-06-06T04:00:00Z,28.4073,-96.7122,0.0,5.5,118.0,7.0,'11111222,11111222,11111222' 
TCOON,ioos:station:TCOON:031:1,2010-06-06T05:00:00Z,28.4073,-96.7122,0.0,6.8,128.0,8.5,'11111222,11111222,11111222' 
TCOON,ioos:station:TCOON:031:1,2010-06-06T06:00:00Z,28.4073,-96.7122,0.0,5.4,121.0,7.3,'11111222,11111222,11111222' 
TCOON,ioos:station:TCOON:031:1,2010-06-06T07:00:00Z,28.4073,-96.7122,0.0,6.3,130.0,7.1,'11111222,11111222,11111222' 
TCOON,ioos:station:TCOON:031:1,2010-06-06T08:00:00Z,28.4073,-96.7122,0.0,6.9,134.0,8.3,'11111222,11111222,11111222' 
TCOON,ioos:station:TCOON:031:1,2010-06-06T09:00:00Z,28.4073,-96.7122,0.0,5.8,128.0,6.4,'11111222,11111222,11111222' 
TCOON,ioos:station:TCOON:031:1,2010-06-06T10:00:00Z,28.4073,-96.7122,0.0,4.0,111.0,4.8,'11111222,11111222,11111222' 
TCOON,ioos:station:TCOON:031:1,2010-06-06T11:00:00Z,28.4073,-96.7122,0.0,2.3,101.0,2.7,'11111222,11111222,11111222' 
TCOON,ioos:station:TCOON:031:1,2010-06-06T12:00:00Z,28.4073,-96.7122,0.0,2.0,61.0,2.6,'11111222,11111222,11111222' 
TCOON,ioos:station:TCOON:031:1,2010-06-06T13:00:00Z,28.4073,-96.7122,0.0,2.0,74.0,3.0,'11111222,11111222,11111222' 
TCOON,ioos:station:TCOON:031:1,2010-06-06T14:00:00Z,28.4073,-96.7122,0.0,5.4,91.0,6.6,'11111222,11111222,11111222' 
TCOON,ioos:station:TCOON:031:1,2010-06-06T15:00:00Z,28.4073,-96.7122,0.0,5.7,100.0,7.4,'11111222,11111222,11111222' 
TCOON,ioos:station:TCOON:031:1,2010-06-06T16:00:00Z,28.4073,-96.7122,0.0,5.8,96.0,8.3,'11111222,11111222,11111222' 
TCOON,ioos:station:TCOON:031:1,2010-06-06T17:00:00Z,28.4073,-96.7122,0.0,6.0,106.0,7.9,'11111222,11111222,11111222' 
TCOON,ioos:station:TCOON:031:1,2010-06-06T18:00:00Z,28.4073,-96.7122,0.0,5.0,107.0,7.5,'11111222,11111222,11111222' 
TCOON,ioos:station:TCOON:031:1,2010-06-06T19:00:00Z,28.4073,-96.7122,0.0,4.1,101.0,6.4,'11111222,11111222,11111222' 
TCOON,ioos:station:TCOON:031:1,2010-06-06T20:00:00Z,28.4073,-96.7122,0.0,4.6,110.0,6.3,'11111222,11111222,11111222' 
TCOON,ioos:station:TCOON:031:1,2010-06-06T21:00:00Z,28.4073,-96.7122,0.0,4.0,93.0,7.2,'11111222,11111222,11111222' 
TCOON,ioos:station:TCOON:031:1,2010-06-06T22:00:00Z,28.4073,-96.7122,0.0,5.9,87.0,7.2,'11111222,11111222,11111222' 
TCOON,ioos:station:TCOON:031:1,2010-06-06T23:00:00Z,28.4073,-96.7122,0.0,4.6,103.0,6.8,'11111222,11111222,11111222' 
TCOON,ioos:station:TCOON:031:1,2010-06-07T00:00:00Z,28.4073,-96.7122,0.0,4.5,94.0,6.1,'11111222,11111222,11111222' 
TCOON,ioos:station:TCOON:031:1,2010-06-07T01:00:00Z,28.4073,-96.7122,0.0,5.0,104.0,6.8,'11111222,11111222,11111222' 
TCOON,ioos:station:TCOON:031:1,2010-06-07T02:00:00Z,28.4073,-96.7122,0.0,2.8,101.0,5.1,'11111222,11111222,11111222' 
TCOON,ioos:station:TCOON:031:1,2010-06-07T03:00:00Z,28.4073,-96.7122,0.0,2.4,85.0,3.5,'11111222,11111222,11111222' 
TCOON,ioos:station:TCOON:031:1,2010-06-07T04:00:00Z,28.4073,-96.7122,0.0,2.0,101.0,2.8,'11111222,11111222,11111222' 
TCOON,ioos:station:TCOON:031:1,2010-06-07T05:00:00Z,28.4073,-96.7122,0.0,3.0,108.0,3.4,'11111222,11111222,11111222' 
TCOON,ioos:station:TCOON:031:1,2010-06-07T06:00:00Z,28.4073,-96.7122,0.0,3.5,115.0,4.2,'11111222,11111222,11111222' 
TCOON,ioos:station:TCOON:031:1,2010-06-07T07:00:00Z,28.4073,-96.7122,0.0,3.8,121.0,4.4,'11111222,11111222,11111222' 
TCOON,ioos:station:TCOON:031:1,2010-06-07T08:00:00Z,28.4073,-96.7122,0.0,2.9,114.0,3.5,'11111222,11111222,11111222' 
TCOON,ioos:station:TCOON:031:1,2010-06-07T09:00:00Z,28.4073,-96.7122,0.0,1.1,55.0,1.8,'11111222,11111222,11111222' 
TCOON,ioos:station:TCOON:031:1,2010-06-07T10:00:00Z,28.4073,-96.7122,0.0,2.4,115.0,2.9,'11111222,11111222,11111222' 
TCOON,ioos:station:TCOON:031:1,2010-06-07T11:00:00Z,28.4073,-96.7122,0.0,2.6,110.0,3.0,'11111222,11111222,11111222' 
TCOON,ioos:station:TCOON:031:1,2010-06-07T12:00:00Z,28.4073,-96.7122,0.0,0.3,42.0,0.8,'11111222,11111222,11111222' 
TCOON,ioos:station:TCOON:031:1,2010-06-07T13:00:00Z,28.4073,-96.7122,0.0,1.2,56.0,1.5,'11111222,11111222,11111222' 
TCOON,ioos:station:TCOON:031:1,2010-06-07T14:00:00Z,28.4073,-96.7122,0.0,0.9,63.0,1.5,'11111222,11111222,11111222' 
TCOON,ioos:station:TCOON:031:1,2010-06-07T15:00:00Z,28.4073,-96.7122,0.0,1.4,103.0,2.6,'11111222,11111222,11111222' 
TCOON,ioos:station:TCOON:031:1,2010-06-07T16:00:00Z,28.4073,-96.7122,0.0,2.5,104.0,3.7,'11111222,11111222,11111222' 
TCOON,ioos:station:TCOON:031:1,2010-06-07T17:00:00Z,28.4073,-96.7122,0.0,3.8,95.0,5.6,'11111222,11111222,11111222' 
TCOON,ioos:station:TCOON:031:1,2010-06-07T18:00:00Z,28.4073,-96.7122,0.0,3.5,101.0,4.9,'11111222,11111222,11111222' 
TCOON,ioos:station:TCOON:031:1,2010-06-07T19:00:00Z,28.4073,-96.7122,0.0,4.6,108.0,8.4,'11111222,11111222,11111222' 
TCOON,ioos:station:TCOON:031:1,2010-06-07T20:00:00Z,28.4073,-96.7122,0.0,5.3,96.0,8.6,'11111222,11111222,11111222' 
TCOON,ioos:station:TCOON:031:1,2010-06-07T21:00:00Z,28.4073,-96.7122,0.0,6.1,100.0,8.4,'11111222,11111222,11111222' 
TCOON,ioos:station:TCOON:031:1,2010-06-07T22:00:00Z,28.4073,-96.7122,0.0,5.0,95.0,6.3,'11111222,11111222,11111222' 
TCOON,ioos:station:TCOON:031:1,2010-06-07T23:00:00Z,28.4073,-96.7122,0.0,4.5,79.0,6.6,'11111222,11111222,11111222' 
TCOON,ioos:station:TCOON:031:1,2010-06-08T00:00:00Z,28.4073,-96.7122,0.0,5.4,88.0,6.4,'11111222,11111222,11111222' 
TCOON,ioos:station:TCOON:031:1,2010-06-08T01:00:00Z,28.4073,-96.7122,0.0,4.4,88.0,6.6,'11111222,11111222,11111222' 
TCOON,ioos:station:TCOON:031:1,2010-06-08T02:00:00Z,28.4073,-96.7122,0.0,6.2,108.0,7.3,'11111222,11111222,11111222' 
TCOON,ioos:station:TCOON:031:1,2010-06-08T03:00:00Z,28.4073,-96.7122,0.0,4.3,120.0,5.4,'11111222,11111222,11111222' 
TCOON,ioos:station:TCOON:031:1,2010-06-08T04:00:00Z,28.4073,-96.7122,0.0,3.7,113.0,5.3,'11111222,11111222,11111222' 
TCOON,ioos:station:TCOON:031:1,2010-06-08T05:00:00Z,28.4073,-96.7122,0.0,3.8,116.0,4.8,'11111222,11111222,11111222' 
TCOON,ioos:station:TCOON:031:1,2010-06-08T06:00:00Z,28.4073,-96.7122,0.0,4.7,125.0,6.6,'11111222,11111222,11111222' 
TCOON,ioos:station:TCOON:031:1,2010-06-08T07:00:00Z,28.4073,-96.7122,0.0,5.8,127.0,7.3,'11111222,11111222,11111222' 
TCOON,ioos:station:TCOON:031:1,2010-06-08T08:00:00Z,28.4073,-96.7122,0.0,4.6,123.0,5.1,'11111222,11111222,11111222' 
TCOON,ioos:station:TCOON:031:1,2010-06-08T09:00:00Z,28.4073,-96.7122,0.0,4.6,119.0,4.9,'11111222,11111222,11111222' 
TCOON,ioos:station:TCOON:031:1,2010-06-08T10:00:00Z,28.4073,-96.7122,0.0,5.3,129.0,6.8,'11111222,11111222,11111222' 
TCOON,ioos:station:TCOON:031:1,2010-06-08T11:00:00Z,28.4073,-96.7122,0.0,5.6,155.0,6.2,'11111222,11111222,11111222' 
TCOON,ioos:station:TCOON:031:1,2010-06-08T12:00:00Z,28.4073,-96.7122,0.0,2.9,175.0,3.9,'11111222,11111222,11111222' 
TCOON,ioos:station:TCOON:031:1,2010-06-08T13:00:00Z,28.4073,-96.7122,0.0,2.3,21.0,2.7,'11111222,11111222,11111222' 
TCOON,ioos:station:TCOON:031:1,2010-06-08T14:00:00Z,28.4073,-96.7122,0.0,9.6,134.0,10.4,'11111222,11111222,11111222' 
TCOON,ioos:station:TCOON:031:1,2010-06-08T15:00:00Z,28.4073,-96.7122,0.0,6.5,143.0,8.1,'11111222,11111222,11111222' 
TCOON,ioos:station:TCOON:031:1,2010-06-08T16:00:00Z,28.4073,-96.7122,0.0,3.7,189.0,4.1,'11111222,11111222,11111222' 
TCOON,ioos:station:TCOON:031:1,2010-06-08T17:00:00Z,28.4073,-96.7122,0.0,3.6,195.0,4.7,'11111222,11111222,11111222' 
TCOON,ioos:station:TCOON:031:1,2010-06-08T18:00:00Z,28.4073,-96.7122,0.0,2.5,224.0,2.7,'11111222,11111222,11111222' 
TCOON,ioos:station:TCOON:031:1,2010-06-08T19:00:00Z,28.4073,-96.7122,0.0,3.3,100.0,4.2,'11111222,11111222,11111222' 
TCOON,ioos:station:TCOON:031:1,2010-06-08T20:00:00Z,28.4073,-96.7122,0.0,4.6,91.0,6.2,'11111222,11111222,11111222' 
TCOON,ioos:station:TCOON:031:1,2010-06-08T21:00:00Z,28.4073,-96.7122,0.0,5.6,87.0,8.1,'11111222,11111222,11111222' 
TCOON,ioos:station:TCOON:031:1,2010-06-08T22:00:00Z,28.4073,-96.7122,0.0,7.4,86.0,8.8,'11111222,11111222,11111222' 
TCOON,ioos:station:TCOON:031:1,2010-06-08T23:00:00Z,28.4073,-96.7122,0.0,5.1,92.0,10.3,'11111222,11111222,11111222' 
TCOON,ioos:station:TCOON:031:1,2010-06-09T00:00:00Z,28.4073,-96.7122,0.0,6.5,89.0,8.4,'11111222,11111222,11111222' 
TCOON,ioos:station:TCOON:031:1,2010-06-09T01:00:00Z,28.4073,-96.7122,0.0,4.5,84.0,7.2,'11111222,11111222,11111222' 
TCOON,ioos:station:TCOON:031:1,2010-06-09T02:00:00Z,28.4073,-96.7122,0.0,3.7,97.0,5.8,'11111222,11111222,11111222' 
TCOON,ioos:station:TCOON:031:1,2010-06-09T03:00:00Z,28.4073,-96.7122,0.0,5.7,101.0,7.2,'11111222,11111222,11111222' 
TCOON,ioos:station:TCOON:031:1,2010-06-09T04:00:00Z,28.4073,-96.7122,0.0,5.3,112.0,8.1,'11111222,11111222,11111222' 
TCOON,ioos:station:TCOON:031:1,2010-06-09T05:00:00Z,28.4073,-96.7122,0.0,6.3,114.0,7.5,'11111222,11111222,11111222' 
TCOON,ioos:station:TCOON:031:1,2010-06-09T06:00:00Z,28.4073,-96.7122,0.0,7.1,118.0,9.6,'11111222,11111222,11111222' 
TCOON,ioos:station:TCOON:031:1,2010-06-09T07:00:00Z,28.4073,-96.7122,0.0,7.4,130.0,9.6,'11111222,11111222,11111222' 
TCOON,ioos:station:TCOON:031:1,2010-06-09T08:00:00Z,28.4073,-96.7122,0.0,6.3,125.0,8.1,'11111222,11111222,11111222' 
TCOON,ioos:station:TCOON:031:1,2010-06-09T09:00:00Z,28.4073,-96.7122,0.0,7.4,132.0,9.9,'11111222,11111222,11111222' 
TCOON,ioos:station:TCOON:031:1,2010-06-09T10:00:00Z,28.4073,-96.7122,0.0,6.9,130.0,8.1,'11111222,11111222,11111222' 
TCOON,ioos:station:TCOON:031:1,2010-06-09T11:00:00Z,28.4073,-96.7122,0.0,5.8,121.0,7.5,'11111222,11111222,11111222' 
TCOON,ioos:station:TCOON:031:1,2010-06-09T12:00:00Z,28.4073,-96.7122,0.0,6.4,123.0,7.5,'11111222,11111222,11111222' 
TCOON,ioos:station:TCOON:031:1,2010-06-09T13:00:00Z,28.4073,-96.7122,0.0,7.5,119.0,8.6,'11111222,11111222,11111222' 
TCOON,ioos:station:TCOON:031:1,2010-06-09T14:00:00Z,28.4073,-96.7122,0.0,10.0,129.0,12.1,'11111222,11111222,11111222' 